{"data":{"norad_id":59189,"intl_designator":"2024-045M","name":"STARLINK-31498","alt_names":[],"object_type":"PAYLOAD","status":"ACTIVE","operator":null,"country":"US","launch_date":"2024-03-10","launch_site_code":"AFETR","launch_vehicle":null,"mission":null,"orbit_class":"UNKNOWN","rcs_meters":null,"size_class":null,"mass_kg":null,"dimensions":null,"purposes":["comms"],"wikipedia_slug":null,"has_3d_model":false,"image_url":null,"decayed_at":null,"tle_current":{"epoch":"2026-09-20T21:42:57.950496Z","epoch_age_seconds":123839,"freshness":"FRESH","line1":"1 59189U 24045M   26263.90483739  .00000274  00000+0  19502-4 0  9992","line2":"2 59189  43.0066  70.3596 0002550 266.7600  93.2960 15.27576435143015","mean_motion":15.27576435,"eccentricity":0.000255,"inclination_deg":43.0066,"raan_deg":70.3596,"arg_perigee_deg":266.76,"mean_anomaly_deg":93.296,"bstar":1.9502e-5,"rev_number":14301,"period_min":94.266968709818,"perigee_km":481.31016577632,"apogee_km":484.80937612951,"semimajor_km":6861.1967709529,"source":"CELESTRAK","updated_at":"2026-09-21T09:00:34.064134Z"}}}